EW5321 Weather Reports


time (UTC)temp
C
wind
direction
speed
KPH
gust
KPH
rain 1hr
cm
rain 24hr
cm
rain mn
cm
humidity
%
barometer
mb
20260504050617 10 244 9.7 12.9 0.00 0.03 0.00 56 1009.3
20260504045617 10 242 9.7 12.9 0.00 0.03 0.00 56 1009.4
20260504044657 9 238 9.7 12.9 0.00 0.03 0.00 56 1009.5
20260504043617 9 236 8.0 11.3 0.00 0.03 0.00 57 1009.6
20260504042619 9 238 8.0 11.3 0.00 0.03 0.00 56 1009.6
20260504041617 10 246 6.4 9.7 0.00 0.03 0.00 56 1009.7
20260504040618 10 239 4.8 6.4 0.00 0.03 0.00 54 1009.7
20260504035618 10 247 6.4 9.7 0.00 0.03 0.03 54 1009.7
20260504034639 11 264 4.8 6.4 0.00 0.03 0.03 53 1009.6
20260504033618 11 246 4.8 6.4 0.00 0.03 0.03 53 1009.6
20260504032616 11 268 4.8 4.8 0.00 0.03 0.03 54 1009.7
20260504031616 11 279 4.8 4.8 0.00 0.03 0.03 52 1009.8
20260504030616 11 225 4.8 6.4 0.00 0.03 0.03 53 1010.0
20260504025616 11 251 3.2 3.2 0.00 0.03 0.03 55 1010.1
20260504024616 11 266 3.2 4.8 0.00 0.03 0.03 54 1010.2
20260504023616 11 278 3.2 4.8 0.00 0.03 0.03 55 1010.2
20260504022617 11 269 1.6 3.2 0.00 0.03 0.03 52 1010.2
20260504021617 11 256 6.4 9.7 0.00 0.03 0.03 52 1010.1
20260504020637 12 234 6.4 9.7 0.00 0.03 0.03 51 1010.1
20260504015617 12 247 9.7 17.7 0.00 0.03 0.03 49 1010.1
20260504014617 12 241 11.3 17.7 0.00 0.03 0.03 48 1010.2
20260504013617 12 244 14.5 22.5 0.00 0.03 0.03 49 1010.1
20260504012618 12 261 4.8 11.3 0.00 0.03 0.03 48 1010.1
20260504011638 12 236 6.4 11.3 0.00 0.03 0.03 49 1010.1
20260504010638 12 206 3.2 4.8 0.00 0.03 0.03 49 1010.1
20260504005618 12 78 4.8 8.0 0.00 0.03 0.03 50 1010.0
20260504004639 12 234 9.7 16.1 0.00 0.03 0.03 49 1010.1
20260504003659 12 243 16.1 27.4 0.00 0.03 0.03 48 1009.9
20260504002616 11 244 6.4 11.3 0.00 0.03 0.03 48 1009.9
20260504001616 11 293 3.2 4.8 0.00 0.03 0.03 58 1010.0
20260504000616 11 266 3.2 3.2 0.00 0.03 0.03 54 1009.6
20260503235616 12 307 3.2 3.2 0.00 0.03 0.03 51 1009.5
20260503234617 12 32 1.6 4.8 0.00 0.03 0.03 51 1009.5
20260503233617 12 233 11.3 12.9 0.00 0.03 0.03 48 1009.5
20260503232617 12 246 8.0 14.5 0.00 0.03 0.03 49 1009.6
20260503231617 12 23 4.8 11.3 0.00 0.03 0.03 48 1009.6
20260503230617 12 244 20.9 25.7 0.00 0.03 0.03 46 1009.3
20260503225618 13 263 8.0 16.1 0.00 0.03 0.03 47 1009.3
20260503224617 13 249 8.0 16.1 0.00 0.03 0.03 46 1009.1
20260503223618 13 293 1.6 4.8 0.00 0.03 0.03 50 1009.1
20260503222638 13 261 4.8 9.7 0.00 0.03 0.03 49 1009.1
20260503221617 13 246 12.9 16.1 0.00 0.03 0.03 48 1009.0
20260503220618 13 244 9.7 12.9 0.00 0.03 0.03 49 1009.3
20260503215638 13 264 6.4 14.5 0.00 0.03 0.03 48 1009.3
20260503214616 13 254 9.7 12.9 0.00 0.03 0.03 49 1009.2
20260503213636 13 254 8.0 11.3 0.00 0.03 0.03 47 1009.2
20260503212616 13 223 6.4 12.9 0.00 0.03 0.03 46 1009.1
20260503211616 14 276 8.0 17.7 0.00 0.03 0.03 47 1009.1
20260503210616 14 286 6.4 14.5 0.00 0.03 0.03 45 1009.1
20260503205616 13 292 4.8 6.4 0.00 0.03 0.03 46 1009.3
20260503204637 13 273 6.4 11.3 0.00 0.03 0.03 46 1009.3
20260503203617 13 246 9.7 12.9 0.00 0.03 0.03 48 1009.5
20260503202617 13 241 6.4 11.3 0.00 0.03 0.03 47 1009.6
20260503201617 13 237 16.1 20.9 0.00 0.03 0.03 47 1009.7
20260503200617 13 348 3.2 6.4 0.00 0.03 0.03 47 1009.8
20260503195617 13 239 6.4 12.9 0.00 0.03 0.03 47 1009.9
20260503194617 13 316 3.2 8.0 0.00 0.03 0.03 47 1010.1
20260503193639 12 236 9.7 12.9 0.00 0.03 0.03 47 1010.3
20260503192618 12 274 4.8 11.3 0.00 0.03 0.03 47 1010.5
20260503191618 12 239 12.9 14.5 0.03 0.03 0.03 50 1010.7
20260503190639 12 256 8.0 12.9 0.03 0.03 0.03 49 1010.7
20260503185618 12 340 8.0 14.5 0.03 0.03 0.03 47 1010.7
20260503184615 12 14 8.0 12.9 0.03 0.03 0.03 48 1010.6
20260503183616 12 268 9.7 16.1 0.03 0.03 0.03 46 1010.8
20260503182617 13 336 9.7 16.1 0.03 0.03 0.03 45 1010.9
20260503181636 13 292 8.0 12.9 0.00 0.00 0.00 46 1010.8
20260503180616 13 346 8.0 12.9 0.00 0.00 0.00 46 1010.9
20260503175616 13 269 4.8 12.9 0.00 0.00 0.00 45 1010.8
20260503174657 12 351 8.0 11.3 0.00 0.00 0.00 47 1010.7
20260503173617 12 242 9.7 16.1 0.00 0.00 0.00 45 1010.9
20260503172617 12 16 8.0 14.5 0.00 0.00 0.00 44 1011.0
20260503171617 12 273 6.4 11.3 0.00 0.00 0.00 45 1011.1
20260503170637 12 259 6.4 16.1 0.00 0.00 0.00 46 1011.1
20260503150616 9 238 8.0 12.9 0.00 0.00 0.00 54 1012.6
20260503130616 7 125 3.2 6.4 0.00 0.00 0.00 57 1013.0
20260503110638 3 294 1.6 3.2 0.00 0.00 0.00 77 1013.0
20260503081618 2 277 1.6 3.2 0.00 0.00 0.00 79 1012.6
20260503080616 2 280 0.0 3.2 0.00 0.00 0.00 79 1012.6
20260503072616 3 246 0.0 1.6 0.00 0.00 0.00 79 1012.6
20260503071616 3 271 1.6 4.8 0.00 0.00 0.00 79 1012.6
20260503070616 3 291 3.2 3.2 0.00 0.00 0.00 79 1012.6
20260503054617 3 333 1.6 3.2 0.00 0.00 0.00 77 1012.8
20260503053617 3 243 1.6 4.8 0.00 0.00 0.00 77 1012.9